This is the latest recevied weather packets stored in our database for station/object OK1LPD-6. If no packets are shown the sender has not sent any weather packets the latest 10 day(s).
| Time | Temp. | Humidity | Pressure | Rain* | Wind** | Luminosity | Snow |
|---|---|---|---|---|---|---|---|
| 1777926291 | 17.22° C | 63% | 1011.3 hPa | 0 mm | - | - | - |
| 1777925712 | 17.78° C | 60% | 1011.3 hPa | 0 mm | - | - | - |
| 1777925092 | 17.78° C | 60% | 1011.5 hPa | 0 mm | - | - | - |
| 1777924492 | 17.78° C | 60% | 1011.5 hPa | 0 mm | - | - | - |
| 1777923912 | 17.78° C | 60% | 1011.4 hPa | 0 mm | - | - | - |
| 1777923293 | 17.78° C | 56% | 1011.3 hPa | 0 mm | - | - | - |
| 1777922692 | 17.78° C | 55% | 1011.3 hPa | 0 mm | - | - | - |
| 1777922112 | 17.78° C | 54% | 1011.3 hPa | 0 mm | - | - | - |
| 1777921492 | 18.33° C | 53% | 1011.2 hPa | 0 mm | - | - | - |
| 1777920893 | 18.89° C | 52% | 1011.2 hPa | 0 mm | - | - | - |
| 1777920310 | 19.44° C | 51% | 1010.9 hPa | 0 mm | - | - | - |
| 1777919693 | 20° C | 51% | 1011 hPa | 0 mm | - | - | - |
| 1777919092 | 20.56° C | 47% | 1011 hPa | 0 mm | - | - | - |
| 1777918513 | 21.67° C | 47% | 1011 hPa | 0 mm | - | - | - |
| 1777917893 | 22.22° C | 44% | 1010.9 hPa | 0 mm | - | - | - |
| 1777917293 | 22.22° C | 44% | 1010.9 hPa | 0 mm | - | - | - |
| 1777916711 | 22.78° C | 40% | 1010.8 hPa | 0 mm | - | - | - |
| 1777916093 | 22.78° C | 40% | 1010.9 hPa | 0 mm | - | - | - |
| 1777915494 | 23.33° C | 39% | 1010.9 hPa | 0 mm | - | - | - |
| 1777914914 | 23.33° C | 38% | 1010.9 hPa | 0 mm | - | - | - |
| 1777914294 | 23.89° C | 36% | 1011.1 hPa | 0 mm | - | - | - |
| 1777913694 | 23.89° C | 35% | 1011 hPa | 0 mm | - | - | - |
| 1777913111 | 24.44° C | 35% | 1011.2 hPa | 0 mm | - | - | - |
| 1777912494 | 24.44° C | 34% | 1011.1 hPa | 0 mm | - | - | - |
| 1777911894 | 24.44° C | 33% | 1011.1 hPa | 0 mm | - | - | - |
* Rain latest hour (hover to see other rain measurements)
** Current wind speed in m/s (hover to see current wind gust speed)